,,Stat6,,Stat2,,Stat8,,Stat9,,Stat10,,Wind1,,Wind1,
time,status,PA1M_AVG,status,PR1M_SUM,status,RH1M_AVG,status,SR1M_AVG,status,TA1M_AVG,status,W1dAve1m,status,W1sAve1m,
2009-08-06, 00:00:00,VALID,917.252,VALID,0,VALID,100,VALID,-0.0509425,VALID,17.9164,VALID,19,VALID,0,
2009-08-06, 00:01:00,VALID,917.249,VALID,0,VALID,100,VALID,-0.0849042,VALID,17.9282,VALID,20,VALID,0,
2009-08-06, 00:02:00,VALID,917.241,VALID,0,VALID,100,VALID,-0.0169808,VALID,17.9512,VALID,22,VALID,0.139323,
2009-08-06, 00:03:00,VALID,917.233,VALID,0,VALID,100,VALID,0,VALID,18.0457,VALID,24,VALID,0.0568182,
2009-08-06, 00:04:00,VALID,917.238,VALID,0,VALID,100,VALID,-0.0169808,VALID,18.0839,VALID,27,VALID,0.030692,
2009-08-06, 00:05:00,VALID,917.228,VALID,0,VALID,100,VALID,-0.0339617,VALID,18.1233,VALID,20,VALID,0,
2009-08-06, 00:06:00,VALID,917.227,VALID,0,VALID,100,VALID,-0.0169808,VALID,18.1494,VALID,12,VALID,0,
2009-08-06, 00:07:00,VALID,917.227,VALID,0,VALID,100,VALID,0,VALID,18.1944,VALID,15,VALID,0,
2009-08-06, 00:08:00,VALID,917.224,VALID,0,VALID,100,VALID,-0.0339617,VALID,18.2141,VALID,15,VALID,0,
2009-08-06, 00:09:00,VALID,917.21,VALID,0,VALID,100,VALID,0,VALID,18.2074,VALID,23,VALID,0,
2009-08-06, 00:10:00,VALID,917.2,VALID,0,VALID,100,VALID,0,VALID,18.1777,VALID,10,VALID,0,
2009-08-06, 00:11:00,VALID,917.181,VALID,0,VALID,100,VALID,0,VALID,18.181,VALID,9,VALID,0,
2009-08-06, 00:12:00,VALID,917.189,VALID,0,VALID,100,VALID,0,VALID,18.1877,VALID,6,VALID,0,
2009-08-06, 00:13:00,VALID,917.195,VALID,0,VALID,100,VALID,-0.0169808,VALID,18.1717,VALID,1,VALID,0.202951,
2009-08-06, 00:14:00,VALID,917.196,VALID,0,VALID,100,VALID,-0.0169808,VALID,18.2044,VALID,8,VALID,0.110677,
2009-08-06, 00:15:00,VALID,917.2,VALID,0,VALID,100,VALID,0,VALID,18.1974,VALID,358,VALID,0.00111607,
2009-08-06, 00:16:00,VALID,917.195,VALID,0,VALID,100,VALID,0,VALID,18.2009,VALID,357,VALID,0,
2009-08-06, 00:17:00,VALID,917.196,VALID,0,VALID,100,VALID,0,VALID,18.2139,VALID,355,VALID,0,
2009-08-06, 00:18:00,VALID,917.195,VALID,0,VALID,100,VALID,0,VALID,18.2139,VALID,357,VALID,0,
2009-08-06, 00:19:00,VALID,917.184,VALID,0,VALID,100,VALID,-0.0169808,VALID,18.2173,VALID,358,VALID,0.040516,
2009-08-06, 00:20:00,VALID,917.184,VALID,0,VALID,100,VALID,-0.0169808,VALID,18.2266,VALID,327,VALID,0.00520833,
2009-08-06, 00:21:00,VALID,917.182,VALID,0,VALID,100,VALID,-0.0169808,VALID,18.237,VALID,326,VALID,0,
2009-08-06, 00:22:00,VALID,917.176,VALID,0,VALID,100,VALID,0,VALID,18.2335,VALID,323,VALID,0.00114329,
2009-08-06, 00:23:00,VALID,917.173,VALID,0,VALID,100,VALID,0,VALID,18.2303,VALID,322,VALID,0,
2009-08-06, 00:24:00,VALID,917.174,VALID,0,VALID,100,VALID,0,VALID,18.2071,VALID,316,VALID,0,
2009-08-06, 00:25:00,VALID,917.171,VALID,0,VALID,100,VALID,0,VALID,18.1944,VALID,316,VALID,0,
2009-08-06, 00:26:00,VALID,917.174,VALID,0,VALID,100,VALID,0,VALID,18.1525,VALID,316,VALID,0,
2009-08-06, 00:27:00,VALID,917.172,VALID,0,VALID,100,VALID,0,VALID,18.0485,VALID,316,VALID,0,
2009-08-06, 00:28:00,VALID,917.176,VALID,0,VALID,100,VALID,0,VALID,18.0385,VALID,312,VALID,0.00223214,
2009-08-06, 00:29:00,VALID,917.185,VALID,0,VALID,100,VALID,0,VALID,18.032,VALID,309,VALID,0,
2009-08-06, 00:30:00,VALID,917.174,VALID,0,VALID,100,VALID,0,VALID,17.9544,VALID,322,VALID,0.0725204,
2009-08-06, 00:31:00,VALID,917.17,VALID,0,VALID,100,VALID,0,VALID,17.8895,VALID,336,VALID,0,
2009-08-06, 00:32:00,VALID,917.163,VALID,0,VALID,100,VALID,0,VALID,17.8407,VALID,334,VALID,0,
2009-08-06, 00:33:00,VALID,917.15,VALID,0,VALID,100,VALID,0,VALID,17.815,VALID,350,VALID,0.00133384,
2009-08-06, 00:34:00,VALID,917.127,VALID,0,VALID,100,VALID,-0.0509425,VALID,17.8601,VALID,355,VALID,0,
2009-08-06, 00:35:00,VALID,917.11,VALID,0,VALID,100,VALID,0,VALID,17.9155,VALID,296,VALID,0,
2009-08-06, 00:36:00,VALID,917.086,VALID,0,VALID,100,VALID,-0.0169808,VALID,17.9579,VALID,273,VALID,0.0012718,
2009-08-06, 00:37:00,VALID,917.062,VALID,0,VALID,100,VALID,-0.0339617,VALID,17.9936,VALID,296,VALID,0.00133384,
2009-08-06, 00:38:00,VALID,917.03,VALID,0,VALID,100,VALID,0,VALID,17.9607,VALID,302,VALID,0,
2009-08-06, 00:39:00,VALID,917.034,VALID,0,VALID,100,VALID,-0.0169808,VALID,17.88,VALID,302,VALID,0,
2009-08-06, 00:40:00,VALID,917.041,VALID,0,VALID,100,VALID,-0.0169808,VALID,17.8374,VALID,302,VALID,0,
2009-08-06, 00:41:00,VALID,917.029,VALID,0,VALID,100,VALID,-0.0509425,VALID,17.8643,VALID,302,VALID,0,
2009-08-06, 00:42:00,VALID,917.024,VALID,0,VALID,100,VALID,0,VALID,17.8374,VALID,5,VALID,0.116235,
2009-08-06, 00:43:00,VALID,917.02,VALID,0,VALID,100,VALID,-0.0169808,VALID,17.7015,VALID,26,VALID,0,
2009-08-06, 00:44:00,VALID,917.042,VALID,0,VALID,100,VALID,-0.0339617,VALID,17.695,VALID,26,VALID,0,
2009-08-06, 00:45:00,VALID,917.042,VALID,0,VALID,100,VALID,-0.0339617,VALID,17.7021,VALID,26,VALID,0,
2009-08-06, 00:46:00,VALID,917.039,VALID,0,VALID,100,VALID,-0.0679233,VALID,17.6598,VALID,26,VALID,0,
2009-08-06, 00:47:00,VALID,917.027,VALID,0,VALID,100,VALID,-0.0849042,VALID,17.5826,VALID,29,VALID,0.00508721,
2009-08-06, 00:48:00,VALID,917.021,VALID,0,VALID,100,VALID,-0.0679233,VALID,17.5301,VALID,18,VALID,0.00585938,
2009-08-06, 00:49:00,VALID,917.026,VALID,0,VALID,100,VALID,-0.0339617,VALID,17.6169,VALID,10,VALID,0.0642756,
2009-08-06, 00:50:00,VALID,917.024,VALID,0,VALID,100,VALID,-0.0339617,VALID,17.6892,VALID,10,VALID,0,
2009-08-06, 00:51:00,VALID,917.018,VALID,0,VALID,100,VALID,-0.0339617,VALID,17.6892,VALID,10,VALID,0,
2009-08-06, 00:52:00,VALID,917.022,VALID,0,VALID,100,VALID,-0.0509425,VALID,17.6435,VALID,14,VALID,0,
2009-08-06, 00:53:00,VALID,917.031,VALID,0,VALID,100,VALID,-0.0849042,VALID,17.6399,VALID,14,VALID,0,
2009-08-06, 00:54:00,VALID,917.035,VALID,0,VALID,100,VALID,-0.0679233,VALID,17.634,VALID,16,VALID,0,
2009-08-06, 00:55:00,VALID,917.021,VALID,0,VALID,100,VALID,-0.0509425,VALID,17.6727,VALID,22,VALID,0,
2009-08-06, 00:56:00,VALID,917.033,VALID,0,VALID,100,VALID,-0.0509425,VALID,17.6758,VALID,24,VALID,0,
2009-08-06, 00:57:00,VALID,917.026,VALID,0,VALID,100,VALID,0.0169808,VALID,17.704,VALID,24,VALID,0,
2009-08-06, 00:58:00,VALID,917.01,VALID,0,VALID,100,VALID,0.0339617,VALID,17.7068,VALID,24,VALID,0,
2009-08-06, 00:59:00,VALID,917.002,VALID,0,VALID,100,VALID,0,VALID,17.6515,VALID,24,VALID,0,
2009-08-06, 01:00:00,VALID,916.992,VALID,0,VALID,100,VALID,0.0169808,VALID,17.6517,VALID,24,VALID,0,
2009-08-06, 01:01:00,VALID,916.978,VALID,0,VALID,100,VALID,0.0339617,VALID,17.6846,VALID,24,VALID,0,
2009-08-06, 01:02:00,VALID,916.958,VALID,0,VALID,100,VALID,0.0679233,VALID,17.6612,VALID,24,VALID,0,
2009-08-06, 01:03:00,VALID,916.968,VALID,0,VALID,100,VALID,0,VALID,17.6519,VALID,24,VALID,0,
2009-08-06, 01:04:00,VALID,916.963,VALID,0,VALID,100,VALID,0.0339617,VALID,17.6385,VALID,24,VALID,0,
2009-08-06, 01:05:00,VALID,916.94,VALID,0,VALID,100,VALID,0.0169808,VALID,17.6878,VALID,24,VALID,0,
2009-08-06, 01:06:00,VALID,916.924,VALID,0,VALID,100,VALID,0.0339617,VALID,17.6844,VALID,24,VALID,0,
2009-08-06, 01:07:00,VALID,916.922,VALID,0,VALID,100,VALID,0.0679233,VALID,17.7068,VALID,24,VALID,0,
2009-08-06, 01:08:00,VALID,916.893,VALID,0,VALID,100,VALID,0,VALID,17.7038,VALID,24,VALID,0,
2009-08-06, 01:09:00,VALID,916.859,VALID,0,VALID,100,VALID,0.0169808,VALID,17.658,VALID,24,VALID,0,
2009-08-06, 01:10:00,VALID,916.83,VALID,0,VALID,100,VALID,0.0509425,VALID,17.6547,VALID,24,VALID,0,
2009-08-06, 01:11:00,VALID,916.824,VALID,0,VALID,100,VALID,0,VALID,17.6029,VALID,24,VALID,0,
2009-08-06, 01:12:00,VALID,916.816,VALID,0,VALID,100,VALID,-0.0339617,VALID,17.5942,VALID,24,VALID,0,
2009-08-06, 01:13:00,VALID,916.819,VALID,0,VALID,100,VALID,-0.0509425,VALID,17.5813,VALID,24,VALID,0,
2009-08-06, 01:14:00,VALID,916.825,VALID,0,VALID,100,VALID,-0.0509425,VALID,17.5845,VALID,24,VALID,0,
2009-08-06, 01:15:00,VALID,916.83,VALID,0,VALID,100,VALID,-0.101885,VALID,17.6267,VALID,24,VALID,0,
2009-08-06, 01:16:00,VALID,916.828,VALID,0,VALID,100,VALID,-0.0849042,VALID,17.6364,VALID,24,VALID,0,
2009-08-06, 01:17:00,VALID,916.827,VALID,0,VALID,100,VALID,-0.0509425,VALID,17.6723,VALID,24,VALID,0,
2009-08-06, 01:18:00,VALID,916.83,VALID,0,VALID,100,VALID,-0.0339617,VALID,17.6306,VALID,24,VALID,0,
2009-08-06, 01:19:00,VALID,916.804,VALID,0,VALID,100,VALID,-0.0679233,VALID,17.6139,VALID,24,VALID,0,
2009-08-06, 01:20:00,VALID,916.788,VALID,0,VALID,100,VALID,-0.0509425,VALID,17.6137,VALID,24,VALID,0,
2009-08-06, 01:21:00,VALID,916.764,VALID,0,VALID,100,VALID,-0.0509425,VALID,17.6723,VALID,22,VALID,0,
2009-08-06, 01:22:00,VALID,916.754,VALID,0,VALID,100,VALID,-0.0339617,VALID,17.7239,VALID,20,VALID,0,
2009-08-06, 01:23:00,VALID,916.732,VALID,0,VALID,100,VALID,-0.0509425,VALID,17.7471,VALID,20,VALID,0,
2009-08-06, 01:24:00,VALID,916.72,VALID,0,VALID,100,VALID,-0.0339617,VALID,17.7596,VALID,24,VALID,0,
2009-08-06, 01:25:00,VALID,916.726,VALID,0,VALID,100,VALID,-0.0509425,VALID,17.7402,VALID,24,VALID,0,
2009-08-06, 01:26:00,VALID,916.713,VALID,0,VALID,100,VALID,-0.0849042,VALID,17.7598,VALID,34,VALID,0,
2009-08-06, 01:27:00,VALID,916.715,VALID,0,VALID,100,VALID,-0.0509425,VALID,17.7726,VALID,43,VALID,0,
2009-08-06, 01:28:00,VALID,916.713,VALID,0,VALID,100,VALID,-0.0509425,VALID,17.7142,VALID,43,VALID,0,
2009-08-06, 01:29:00,VALID,916.693,VALID,0,VALID,100,VALID,-0.0679233,VALID,17.6948,VALID,43,VALID,0,
2009-08-06, 01:30:00,VALID,916.69,VALID,0,VALID,100,VALID,-0.0679233,VALID,17.7404,VALID,40,VALID,0,
2009-08-06, 01:31:00,VALID,916.654,VALID,0,VALID,100,VALID,-0.101885,VALID,17.7478,VALID,31,VALID,0,
2009-08-06, 01:32:00,VALID,916.621,VALID,0,VALID,100,VALID,-0.101885,VALID,17.7475,VALID,27,VALID,0,
2009-08-06, 01:33:00,VALID,916.605,VALID,0,VALID,100,VALID,-0.135847,VALID,17.7633,VALID,351,VALID,0,
2009-08-06, 01:34:00,VALID,916.579,VALID,0,VALID,100,VALID,-0.118866,VALID,17.757,VALID,358,VALID,0,
2009-08-06, 01:35:00,VALID,916.577,VALID,0,VALID,100,VALID,-0.118866,VALID,17.7767,VALID,358,VALID,0,
2009-08-06, 01:36:00,VALID,916.559,VALID,0,VALID,100,VALID,-0.0849042,VALID,17.796,VALID,5,VALID,0,
2009-08-06, 01:37:00,VALID,916.541,VALID,0,VALID,100,VALID,-0.0849042,VALID,17.7997,VALID,15,VALID,0,
2009-08-06, 01:38:00,VALID,916.53,VALID,0,VALID,100,VALID,-0.0679233,VALID,17.7758,VALID,15,VALID,0,
2009-08-06, 01:39:00,VALID,916.538,VALID,0,VALID,100,VALID,-0.0849042,VALID,17.7992,VALID,12,VALID,0,
2009-08-06, 01:40:00,VALID,916.502,VALID,0,VALID,100,VALID,-0.0849042,VALID,17.7994,VALID,13,VALID,0,
2009-08-06, 01:41:00,VALID,916.494,VALID,0,VALID,100,VALID,-0.101885,VALID,17.796,VALID,20,VALID,0,
2009-08-06, 01:42:00,VALID,916.461,VALID,0,VALID,100,VALID,-0.0849042,VALID,17.7728,VALID,20,VALID,0,
2009-08-06, 01:43:00,VALID,916.473,VALID,0,VALID,100,VALID,-0.0849042,VALID,17.7804,VALID,20,VALID,0,
2009-08-06, 01:44:00,VALID,916.435,VALID,0,VALID,100,VALID,-0.101885,VALID,17.764,VALID,20,VALID,0,
2009-08-06, 01:45:00,VALID,916.417,VALID,0,VALID,100,VALID,-0.101885,VALID,17.7274,VALID,24,VALID,0,
2009-08-06, 01:46:00,VALID,916.398,VALID,0,VALID,100,VALID,-0.0849042,VALID,17.8029,VALID,24,VALID,0.27846,
2009-08-06, 01:47:00,VALID,916.413,VALID,0,VALID,100,VALID,-0.118866,VALID,17.8573,VALID,25,VALID,0,
2009-08-06, 01:48:00,VALID,916.419,VALID,0,VALID,100,VALID,-0.101885,VALID,17.9095,VALID,22,VALID,0,
2009-08-06, 01:49:00,VALID,916.413,VALID,0,VALID,100,VALID,-0.0849042,VALID,17.9027,VALID,24,VALID,0,
2009-08-06, 01:50:00,VALID,916.397,VALID,0,VALID,100,VALID,-0.0509425,VALID,17.9317,VALID,23,VALID,0,
2009-08-06, 01:51:00,VALID,916.378,VALID,0,VALID,100,VALID,-0.0679233,VALID,17.9414,VALID,10,VALID,0.0431463,
2009-08-06, 01:52:00,VALID,916.382,VALID,0,VALID,100,VALID,-0.0849042,VALID,17.9674,VALID,14,VALID,0,
2009-08-06, 01:53:00,VALID,916.372,VALID,0,VALID,100,VALID,-0.101885,VALID,17.9739,VALID,12,VALID,0,
2009-08-06, 01:54:00,VALID,916.361,VALID,0,VALID,100,VALID,-0.0679233,VALID,17.9936,VALID,18,VALID,0.0141006,
2009-08-06, 01:55:00,VALID,916.375,VALID,0,VALID,100,VALID,-0.0679233,VALID,18.0225,VALID,358,VALID,0.0866477,
2009-08-06, 01:56:00,VALID,916.386,VALID,0,VALID,100,VALID,-0.0679233,VALID,18.0911,VALID,8,VALID,0,
2009-08-06, 01:57:00,VALID,916.405,VALID,0,VALID,100,VALID,-0.0849042,VALID,18.0943,VALID,352,VALID,0.00117188,
2009-08-06, 01:58:00,VALID,916.416,VALID,0,VALID,100,VALID,-0.0339617,VALID,18.1168,VALID,3,VALID,0,
2009-08-06, 01:59:00,VALID,916.393,VALID,0,VALID,100,VALID,-0.0509425,VALID,18.1138,VALID,359,VALID,0.0472656,
2009-08-06, 02:00:00,VALID,916.395,VALID,0,VALID,100,VALID,-0.0849042,VALID,18.143,VALID,3,VALID,0.0827415,
2009-08-06, 02:01:00,VALID,916.389,VALID,0,VALID,100,VALID,-0.0169808,VALID,18.1657,VALID,6,VALID,0,
2009-08-06, 02:02:00,VALID,916.381,VALID,0,VALID,100,VALID,-0.0679233,VALID,18.1589,VALID,6,VALID,0,
2009-08-06, 02:03:00,VALID,916.373,VALID,0,VALID,100,VALID,-0.0339617,VALID,18.1427,VALID,358,VALID,0.0470567,
2009-08-06, 02:04:00,VALID,916.374,VALID,0,VALID,100,VALID,-0.0509425,VALID,18.1981,VALID,12,VALID,0.185865,
2009-08-06, 02:05:00,VALID,916.352,VALID,0,VALID,99.9308,VALID,-0.0679233,VALID,18.2827,VALID,13,VALID,0.190589,
2009-08-06, 02:06:00,VALID,916.315,VALID,0,VALID,99.5616,VALID,-0.0339617,VALID,18.3308,VALID,9,VALID,0.342152,
2009-08-06, 02:07:00,VALID,916.321,VALID,0,VALID,99.2754,VALID,-0.0849042,VALID,18.3825,VALID,2,VALID,0.396532,
2009-08-06, 02:08:00,VALID,916.314,VALID,0,VALID,98.955,VALID,-0.0339617,VALID,18.4312,VALID,12,VALID,0.109933,
2009-08-06, 02:09:00,VALID,916.281,VALID,0,VALID,98.7414,VALID,-0.0509425,VALID,18.4763,VALID,9,VALID,0.607195,
2009-08-06, 02:10:00,VALID,916.257,VALID,0,VALID,98.4222,VALID,-0.0509425,VALID,18.5125,VALID,14,VALID,0.83718,
2009-08-06, 02:11:00,VALID,916.249,VALID,0,VALID,97.9797,VALID,-0.0849042,VALID,18.5449,VALID,8,VALID,0.75279,
2009-08-06, 02:12:00,VALID,916.252,VALID,0,VALID,97.457,VALID,-0.0509425,VALID,18.5998,VALID,14,VALID,0.332304,
2009-08-06, 02:13:00,VALID,916.261,VALID,0,VALID,97.3057,VALID,-0.0339617,VALID,18.6459,VALID,19,VALID,0.665698,
2009-08-06, 02:14:00,VALID,916.27,VALID,0,VALID,97.0031,VALID,-0.118866,VALID,18.6818,VALID,23,VALID,0.11109,
2009-08-06, 02:15:00,VALID,916.268,VALID,0,VALID,96.9014,VALID,-0.0679233,VALID,18.6751,VALID,21,VALID,0.191939,
2009-08-06, 02:16:00,VALID,916.267,VALID,0,VALID,97.1137,VALID,-0.0509425,VALID,18.6589,VALID,20,VALID,0.592988,
2009-08-06, 02:17:00,VALID,916.261,VALID,0,VALID,97.1582,VALID,-0.0849042,VALID,18.639,VALID,13,VALID,0.713034,
2009-08-06, 02:18:00,VALID,916.258,VALID,0,VALID,96.9255,VALID,-0.0509425,VALID,18.6841,VALID,14,VALID,0.390988,
2009-08-06, 02:19:00,VALID,916.256,VALID,0,VALID,96.647,VALID,-0.0849042,VALID,18.7166,VALID,10,VALID,0.519245,
2009-08-06, 02:20:00,VALID,916.248,VALID,0,VALID,96.3457,VALID,-0.0169808,VALID,18.772,VALID,5,VALID,0.411272,
2009-08-06, 02:21:00,VALID,916.259,VALID,0,VALID,96.1613,VALID,-0.0679233,VALID,18.7949,VALID,17,VALID,0.766927,
2009-08-06, 02:22:00,VALID,916.242,VALID,0,VALID,95.996,VALID,-0.0679233,VALID,18.8234,VALID,22,VALID,0.723323,
2009-08-06, 02:23:00,VALID,916.247,VALID,0,VALID,95.7938,VALID,-0.0849042,VALID,18.8593,VALID,20,VALID,0.206174,
2009-08-06, 02:24:00,VALID,916.243,VALID,0,VALID,95.5369,VALID,-0.0679233,VALID,18.85,VALID,23,VALID,0.414063,
2009-08-06, 02:25:00,VALID,916.229,VALID,0,VALID,95.7251,VALID,-0.0679233,VALID,18.8171,VALID,22,VALID,0.775981,
2009-08-06, 02:26:00,VALID,916.231,VALID,0,VALID,95.7137,VALID,-0.0339617,VALID,18.8009,VALID,28,VALID,1.01581,
2009-08-06, 02:27:00,VALID,916.235,VALID,0,VALID,95.6832,VALID,-0.0339617,VALID,18.7942,VALID,26,VALID,0.702195,
2009-08-06, 02:28:00,VALID,916.232,VALID,0,VALID,95.6933,VALID,-0.0679233,VALID,18.8039,VALID,28,VALID,0.979106,
2009-08-06, 02:29:00,VALID,916.244,VALID,0,VALID,95.6107,VALID,-0.0339617,VALID,18.8663,VALID,15,VALID,0.340554,
2009-08-06, 02:30:00,VALID,916.248,VALID,0,VALID,95.5191,VALID,-0.101885,VALID,18.8625,VALID,20,VALID,0,
2009-08-06, 02:31:00,VALID,916.26,VALID,0,VALID,95.6984,VALID,-0.0509425,VALID,18.8236,VALID,20,VALID,0.211846,
2009-08-06, 02:32:00,VALID,916.246,VALID,0,VALID,95.8892,VALID,-0.0339617,VALID,18.8114,VALID,21,VALID,1.06686,
2009-08-06, 02:33:00,VALID,916.248,VALID,0,VALID,95.7175,VALID,-0.0169808,VALID,18.8174,VALID,19,VALID,0.930729,
2009-08-06, 02:34:00,VALID,916.248,VALID,0,VALID,95.7378,VALID,-0.0339617,VALID,18.7652,VALID,28,VALID,1.01108,
2009-08-06, 02:35:00,VALID,916.259,VALID,0,VALID,95.9031,VALID,-0.0849042,VALID,18.7887,VALID,25,VALID,1.25279,
2009-08-06, 02:36:00,VALID,916.248,VALID,0,VALID,95.6832,VALID,-0.0849042,VALID,18.8431,VALID,23,VALID,1.20179,
2009-08-06, 02:37:00,VALID,916.245,VALID,0,VALID,95.5827,VALID,-0.0509425,VALID,18.8792,VALID,18,VALID,0.399164,
2009-08-06, 02:38:00,VALID,916.24,VALID,0,VALID,95.5191,VALID,-0.0679233,VALID,18.8989,VALID,26,VALID,1.03423,
2009-08-06, 02:39:00,VALID,916.218,VALID,0,VALID,95.5662,VALID,-0.0679233,VALID,18.8785,VALID,23,VALID,0.923549,
2009-08-06, 02:40:00,VALID,916.221,VALID,0,VALID,95.5306,VALID,-0.0339617,VALID,18.8853,VALID,20,VALID,0.702415,
2009-08-06, 02:41:00,VALID,916.201,VALID,0,VALID,95.6298,VALID,-0.0679233,VALID,18.863,VALID,19,VALID,0.58113,
2009-08-06, 02:42:00,VALID,916.193,VALID,0,VALID,95.7773,VALID,-0.0169808,VALID,18.8301,VALID,21,VALID,0.498935,
2009-08-06, 02:43:00,VALID,916.194,VALID,0,VALID,96.0112,VALID,-0.0509425,VALID,18.8076,VALID,21,VALID,0.762195,
2009-08-06, 02:44:00,VALID,916.189,VALID,0,VALID,96.3647,VALID,-0.0849042,VALID,18.769,VALID,18,VALID,1.03087,
2009-08-06, 02:45:00,VALID,916.196,VALID,0,VALID,96.4538,VALID,-0.0509425,VALID,18.7335,VALID,16,VALID,0.873302,
2009-08-06, 02:46:00,VALID,916.21,VALID,0,VALID,96.6572,VALID,-0.0849042,VALID,18.6911,VALID,17,VALID,0.940874,
2009-08-06, 02:47:00,VALID,916.222,VALID,0,VALID,96.8047,VALID,-0.101885,VALID,18.6818,VALID,15,VALID,0.592862,
2009-08-06, 02:48:00,VALID,916.23,VALID,0,VALID,96.9014,VALID,-0.101885,VALID,18.6624,VALID,13,VALID,0.358487,
2009-08-06, 02:49:00,VALID,916.241,VALID,0,VALID,97.0629,VALID,-0.0679233,VALID,18.6529,VALID,17,VALID,0.102896,
2009-08-06, 02:50:00,VALID,916.246,VALID,0,VALID,97.251,VALID,-0.0849042,VALID,18.6297,VALID,18,VALID,0.461496,
2009-08-06, 02:51:00,VALID,916.253,VALID,0,VALID,97.3604,VALID,-0.0849042,VALID,18.6105,VALID,18,VALID,0.715402,
2009-08-06, 02:52:00,VALID,916.23,VALID,0,VALID,97.3922,VALID,-0.0509425,VALID,18.6137,VALID,18,VALID,0.306021,
2009-08-06, 02:53:00,VALID,916.24,VALID,0,VALID,97.4507,VALID,-0.0849042,VALID,18.6237,VALID,18,VALID,0.137019,
2009-08-06, 02:54:00,VALID,916.242,VALID,0,VALID,97.3896,VALID,-0.0679233,VALID,18.6265,VALID,16,VALID,0,
2009-08-06, 02:55:00,VALID,916.231,VALID,0,VALID,97.5181,VALID,-0.0849042,VALID,18.6235,VALID,20,VALID,0.140439,
2009-08-06, 02:56:00,VALID,916.21,VALID,0,VALID,97.7241,VALID,-0.101885,VALID,18.6012,VALID,22,VALID,0.0625,
2009-08-06, 02:57:00,VALID,916.178,VALID,0,VALID,97.9161,VALID,-0.0169808,VALID,18.5607,VALID,28,VALID,0.213118,
2009-08-06, 02:58:00,VALID,916.189,VALID,0,VALID,97.9949,VALID,0.0169808,VALID,18.521,VALID,18,VALID,0.0771723,
2009-08-06, 02:59:00,VALID,916.154,VALID,0,VALID,98.0433,VALID,0,VALID,18.5085,VALID,352,VALID,0.0682664,
2009-08-06, 03:00:00,VALID,916.135,VALID,0,VALID,98.056,VALID,0,VALID,18.4763,VALID,22,VALID,0.0384909,
2009-08-06, 03:01:00,VALID,916.107,VALID,0,VALID,98.3446,VALID,0.0339617,VALID,18.4534,VALID,29,VALID,0.608103,
2009-08-06, 03:02:00,VALID,916.107,VALID,0,VALID,98.5201,VALID,0.0169808,VALID,18.4694,VALID,28,VALID,0.873402,
2009-08-06, 03:03:00,VALID,916.106,VALID,0,VALID,98.4438,VALID,0,VALID,18.4861,VALID,12,VALID,0.0125363,
2009-08-06, 03:04:00,VALID,916.08,VALID,0,VALID,98.3879,VALID,0.0169808,VALID,18.4893,VALID,31,VALID,0,
2009-08-06, 03:05:00,VALID,916.063,VALID,0,VALID,98.3904,VALID,0,VALID,18.4728,VALID,34,VALID,0.0677689,
2009-08-06, 03:06:00,VALID,916.054,VALID,0,VALID,98.501,VALID,0,VALID,18.4756,VALID,26,VALID,0.351563,
2009-08-06, 03:07:00,VALID,916.047,VALID,0,VALID,98.4807,VALID,0,VALID,18.4988,VALID,29,VALID,0.00090843,
2009-08-06, 03:08:00,VALID,916.017,VALID,0,VALID,98.3701,VALID,0.0169808,VALID,18.5115,VALID,23,VALID,0.0828887,
2009-08-06, 03:09:00,VALID,916.018,VALID,0,VALID,98.3828,VALID,0,VALID,18.4949,VALID,3,VALID,0.00208333,
2009-08-06, 03:10:00,VALID,915.976,VALID,0,VALID,98.4006,VALID,0,VALID,18.5018,VALID,355,VALID,0,
2009-08-06, 03:11:00,VALID,915.933,VALID,0,VALID,98.4286,VALID,0.0169808,VALID,18.4594,VALID,5,VALID,0,
2009-08-06, 03:12:00,VALID,915.906,VALID,0,VALID,98.557,VALID,0.0169808,VALID,18.4108,VALID,152,VALID,0,
2009-08-06, 03:13:00,VALID,915.895,VALID,0,VALID,98.7744,VALID,0,VALID,18.3915,VALID,95,VALID,0,
2009-08-06, 03:14:00,VALID,915.884,VALID,0,VALID,98.9003,VALID,0.0169808,VALID,18.3786,VALID,57,VALID,0,
2009-08-06, 03:15:00,VALID,915.863,VALID,0,VALID,98.9664,VALID,0,VALID,18.3422,VALID,27,VALID,0,
2009-08-06, 03:16:00,VALID,915.877,VALID,0,VALID,99.0771,VALID,0,VALID,18.3102,VALID,22,VALID,0,
2009-08-06, 03:17:00,VALID,915.888,VALID,0,VALID,99.2068,VALID,0,VALID,18.2975,VALID,22,VALID,0,
2009-08-06, 03:18:00,VALID,915.905,VALID,0,VALID,99.3123,VALID,0.0339617,VALID,18.3007,VALID,66,VALID,0,
2009-08-06, 03:19:00,VALID,915.916,VALID,0,VALID,99.3848,VALID,0,VALID,18.2977,VALID,58,VALID,0,
2009-08-06, 03:20:00,VALID,915.887,VALID,0,VALID,99.3848,VALID,0,VALID,18.3169,VALID,81,VALID,0,
2009-08-06, 03:21:00,VALID,915.901,VALID,0,VALID,99.2932,VALID,0.0339617,VALID,18.3626,VALID,99,VALID,0.00223214,
2009-08-06, 03:22:00,VALID,915.902,VALID,0,VALID,99.1419,VALID,0,VALID,18.3688,VALID,101,VALID,0,
2009-08-06, 03:23:00,VALID,915.9,VALID,0,VALID,99.0542,VALID,0.0169808,VALID,18.3626,VALID,99,VALID,0,
2009-08-06, 03:24:00,VALID,915.895,VALID,0,VALID,99.03,VALID,0,VALID,18.3329,VALID,100,VALID,0,
2009-08-06, 03:25:00,VALID,915.897,VALID,0,VALID,99.119,VALID,0,VALID,18.3172,VALID,124,VALID,0,
2009-08-06, 03:26:00,VALID,915.89,VALID,0,VALID,99.2055,VALID,-0.0169808,VALID,18.2979,VALID,175,VALID,0,
2009-08-06, 03:27:00,VALID,915.893,VALID,0,VALID,99.2767,VALID,-0.0679233,VALID,18.2562,VALID,176,VALID,0,
2009-08-06, 03:28:00,VALID,915.899,VALID,0,VALID,99.4357,VALID,-0.101885,VALID,18.2409,VALID,181,VALID,0,
2009-08-06, 03:29:00,VALID,915.896,VALID,0,VALID,99.5158,VALID,-0.101885,VALID,18.2083,VALID,179,VALID,0,
2009-08-06, 03:30:00,VALID,915.878,VALID,0,VALID,99.5895,VALID,-0.101885,VALID,18.202,VALID,159,VALID,0,
2009-08-06, 03:31:00,VALID,915.888,VALID,0,VALID,99.6747,VALID,-0.118866,VALID,18.1661,VALID,189,VALID,0,
2009-08-06, 03:32:00,VALID,915.912,VALID,0,VALID,99.7739,VALID,-0.118866,VALID,18.1531,VALID,189,VALID,0,
2009-08-06, 03:33:00,VALID,915.919,VALID,0,VALID,99.8324,VALID,-0.101885,VALID,18.1404,VALID,189,VALID,0,
2009-08-06, 03:34:00,VALID,915.931,VALID,0,VALID,99.8413,VALID,-0.118866,VALID,18.1073,VALID,189,VALID,0,
2009-08-06, 03:35:00,VALID,915.935,VALID,0,VALID,99.9532,VALID,-0.101885,VALID,18.0915,VALID,173,VALID,0,
2009-08-06, 03:36:00,VALID,915.948,VALID,0,VALID,99.987,VALID,-0.101885,VALID,18.085,VALID,220,VALID,0.00817587,
2009-08-06, 03:37:00,VALID,915.968,VALID,0,VALID,99.9886,VALID,-0.101885,VALID,18.0751,VALID,200,VALID,0.00381541,
2009-08-06, 03:38:00,VALID,915.966,VALID,0,VALID,99.9583,VALID,-0.118866,VALID,18.0716,VALID,180,VALID,0,
2009-08-06, 03:39:00,VALID,915.954,VALID,0,VALID,99.9011,VALID,-0.0849042,VALID,18.0524,VALID,178,VALID,0,
2009-08-06, 03:40:00,VALID,915.935,VALID,0,VALID,99.9514,VALID,-0.0849042,VALID,18.0102,VALID,179,VALID,0.0298295,
2009-08-06, 03:41:00,VALID,915.921,VALID,0,VALID,100,VALID,-0.118866,VALID,17.997,VALID,162,VALID,0.00186012,
2009-08-06, 03:42:00,VALID,915.922,VALID,0,VALID,100,VALID,-0.0849042,VALID,17.984,VALID,143,VALID,0,
2009-08-06, 03:43:00,VALID,915.913,VALID,0,VALID,100,VALID,-0.0849042,VALID,17.991,VALID,180,VALID,0,
2009-08-06, 03:44:00,VALID,915.909,VALID,0,VALID,100,VALID,-0.0679233,VALID,17.9776,VALID,181,VALID,0,